Hourly Data Report for October 14, 2015

All times are specified in Local Standard Time (LST). Add 1 hour to adjust for Daylight Saving Time where and when it is observed.

ST LEONARD CS
NEW BRUNSWICK

47°09'28.050" N
67°49'55.014" W
245.00 m
810I001
71019
WIY

Download Data

Hourly Data (October 2015)
Hourly Data Report for October 14, 2015
Temp Definition
°C
Dew Point Temp Definition
°C
Rel Hum Definition
%
Wind Dir Definition
10's deg

Wind Spd Definition
km/h
Visibility Definition
km
Stn Press Definition
kPa
Hmdx Definition


Wind Chill Definition


Weather Definition


TIME
00:00 13.5 13.1 97 19 14   96.59     LegendNANA
01:00 13.5 13.1 97 19 12   96.53     LegendNANA
02:00 13.7 13.2 97 17 12   96.47     LegendNANA
03:00 13.7 13.1 96 21 13   96.42     LegendNANA
04:00 13.1 12.1 94 23 11   96.38     LegendNANA
05:00 11.4 10.3 94 22 12   96.44     LegendNANA
06:00 10.3 9.3 93 22 13   96.52     LegendNANA
07:00 9.9 8.9 94 18 12   96.50     LegendNANA
08:00 10.2 9.3 94 18 15   96.53     LegendNANA
09:00 11.5 9.8 89 20 20   96.54     LegendNANA
10:00 12.3 10.4 88 22 19   96.57     LegendNANA
11:00 13.4 10.2 81 23 23   96.59     LegendNANA
12:00 14.9 9.3 69 24 25   96.64     LegendNANA
13:00 14.7 8.3 66 24 24   96.68     LegendNANA
14:00 14.3 7.3 63 24 28   96.71     LegendNANA
15:00 14.0 7.4 65 26 25   96.75     LegendNANA
16:00 12.6 5.3 61 26 30   96.86     LegendNANA
17:00 11.4 4.7 64 25 21   96.97     LegendNANA
18:00 10.0 4.0 67 26 19   97.07     LegendNANA
19:00 9.3 3.9 69 26 17   97.18     LegendNANA
20:00 8.7 3.1 68 27 23   97.25     LegendNANA
21:00 7.7 2.6 70 27 17   97.34     LegendNANA
22:00 6.4 2.1 74 27 13   97.42     LegendNANA
23:00 5.7 0.8 71 30 14   97.48     LegendNANA

Notes on Data Quality.

Legend

  • E = Estimated
  • M = Missing
  • NA = Not Available
  • ‡ = Partner data that is not subject to review by the National Climate Archives
Date modified: